This is the latest recevied weather packets stored in our database for station/object PA3TA-2. If no packets are shown the sender has not sent any weather packets the latest 10 day(s).
| Time | Temp. | Humidity | Pressure | Rain* | Wind** | Luminosity | Snow |
|---|---|---|---|---|---|---|---|
| 1787873209 | 24.44° C | 69% | 1009.5 hPa | 18.03 mm | - | - | - |
| 1787872905 | 24.44° C | 69% | 1009.5 hPa | 17.78 mm | - | - | - |
| 1787872602 | 24.44° C | 69% | 1010 hPa | 17.27 mm | - | - | - |
| 1787872299 | 24.44° C | 69% | 1010.3 hPa | 15.75 mm | - | - | - |
| 1787871995 | 24.44° C | 68% | 1010.4 hPa | 14.22 mm | - | - | - |
| 1787871692 | 24.44° C | 68% | 1010.4 hPa | 13.46 mm | - | - | - |
| 1787871390 | 24.44° C | 68% | 1010.3 hPa | 12.95 mm | - | - | - |
| 1787871078 | 24.44° C | 68% | 1010.2 hPa | 12.7 mm | - | - | - |
| 1787870774 | 25° C | 68% | 1010.4 hPa | 12.7 mm | - | - | - |
| 1787870471 | 25° C | 68% | 1010.4 hPa | 12.7 mm | - | - | - |
| 1787870168 | 25° C | 68% | 1010.2 hPa | 12.45 mm | - | - | - |
| 1787869864 | 25° C | 67% | 1010.5 hPa | 12.45 mm | - | - | - |
| 1787869561 | 25° C | 67% | 1010.2 hPa | 12.19 mm | - | - | - |
| 1787869258 | 25.56° C | 67% | 1009.8 hPa | 12.19 mm | - | - | - |
| 1787868955 | 25.56° C | 67% | 1010 hPa | 12.19 mm | - | - | - |
| 1787868640 | 25.56° C | 66% | 1010.1 hPa | 12.19 mm | - | - | - |
| 1787868337 | 25.56° C | 65% | 1009.9 hPa | 11.94 mm | - | - | - |
| 1787868034 | 25.56° C | 65% | 1010 hPa | 11.94 mm | - | - | - |
| 1787867730 | 25.56° C | 64% | 1009.8 hPa | 11.94 mm | - | - | - |
| 1787867427 | 26.11° C | 64% | 1009.6 hPa | 11.94 mm | - | - | - |
| 1787867124 | 26.11° C | 64% | 1009.7 hPa | 11.94 mm | - | - | - |
| 1787866821 | 26.11° C | 63% | 1009.8 hPa | 11.94 mm | - | - | - |
| 1787866518 | 26.11° C | 63% | 1009.8 hPa | 11.94 mm | - | - | - |
| 1787866206 | 26.11° C | 63% | 1010.2 hPa | 11.68 mm | - | - | - |
| 1787865903 | 26.67° C | 63% | 1010.4 hPa | 11.68 mm | - | - | - |
* Rain since midnight (hover to see other rain measurements)
** Current wind speed in m/s (hover to see current wind gust speed)